Regional Weather Roundup
Issued by NWS

Home | Current Version | Previous Version | Graphics & Text | Print | Product List | Glossary On
Versions: 1 2 3 4 5 6 7 8 9 10 11 12 13 14 15 16 17 18 19 20 21 22 23 24 25 26 27 28 29 30 31 32 33 34 35 36 37 38 39 40 41 42 43 44 45 46 47 48 49 50
000
ASUS43 KMPX 281710
RWRMN
WEATHER ROUNDUP FOR MINNESOTA
NATIONAL WEATHER SERVICE TWIN CITIES/CHANHASSEN MN
1200 PM CDT WED JUN 28 2017


NOTE: "FAIR" INDICATES FEW OR NO CLOUDS BELOW 12,000 FEET WITH NO
SIGNIFICANT WEATHER AND/OR OBSTRUCTIONS TO VISIBILITY. N/A MEANS
CURRENT SKY AND/OR WEATHER CONDITIONS ARE NOT AVAILABLE.

MNZ060>063-068>070-281800-
   Twin Cities Metro

CITY           SKY/WX    TMP DP  RH WIND       PRES   REMARKS
TWIN CITIES    LGT RAIN  70  64  81 S16       29.58F
ST PAUL        CLOUDY    69  67  93 S12       29.58F
CRYSTAL        LGT RAIN  68  63  84 S10       29.55F
BLAINE         CLOUDY    68  68 100 SE13      29.56F
LAKEVILLE      CLOUDY    70  70 100 S10G18    29.58F
EDEN PRAIRIE   LGT RAIN  71  66  84 S9        29.56R
SOUTH ST PAUL  CLOUDY    67  67 100 S9        29.58S
LAKE ELMO      DRIZZLE   68  66  94 SE12      29.60F
$$
MNZ001>005-007-008-013>017-022>024-027-028-281800-
   Northwest Minnesota

CITY           SKY/WX    TMP DP  RH WIND       PRES   REMARKS
BEMIDJI        LGT RAIN  60  59  97 E10       29.55F
HALLOCK        LGT RAIN  63  61  94 E12       29.54S
ROSEAU         LGT RAIN  61  55  82 NE6       29.58S
WARROAD        RAIN      61  57  88 E8        29.59S
THIEF RVR FALL LGT RAIN  60  58  92 E13       29.52F
CROOKSTON      RAIN      59  59 100 E10       29.50R
FOSSTON        LGT RAIN  57  57 100 E7        29.52S
DETROIT LAKES  CLOUDY    66  63  88 S3        29.51R
MOORHEAD       LGT RAIN  66  63  88 SW6       29.47F
PARK RAPIDS    LGT RAIN  62  58  86 E9        29.52S
MAHNOMEN       DRIZZLE   62  60  94 E10       29.49F
$$
MNZ006-009>011-018-025>026-281800-
   North Central Minnesota

CITY           SKY/WX    TMP DP  RH WIND       PRES   REMARKS
BAUDETTE       LGT RAIN  59  56  89 E12       29.59S
FLAG ISLAND    CLOUDY    64  54  68 SE6       29.59S
INTL FALLS     LGT RAIN  62  54  74 E9        29.61F
WASKISH        CLOUDY    61  55  82 E7        29.57F
BIG FORK       LGT RAIN  63  57  82 E5        29.59F
LONGVILLE      CLOUDY    61  57  88 E3        29.55F
GRAND RAPIDS   HVY RAIN  58  56  93 E6        29.60F FOG
CRANE LAKE     CLOUDY    64  55  72 CALM      29.65S
ORR            CLOUDY    64  54  68 SE7       29.60S
COOK           RAIN      61  55  82 SE6       29.64S
WALKER         CLOUDY    60  56  88 E6        29.54F
$$
MNZ012-019>021-037-281800-
   Northeast Minnesota

CITY           SKY/WX    TMP DP  RH WIND       PRES   REMARKS
DULUTH         RAIN      54  54 100 SE10      29.62F FOG
ELY            CLOUDY    63  50  63 SE8       29.66S
HIBBING        LGT RAIN  58  55  90 SE10      29.62S
EVELETH        LGT RAIN  58  51  77 E5        29.64F
DULUTH HARBOR  HVY RAIN  50  48  93 NE20      29.64S
TWO HARBORS    LGT RAIN  59  54  82 E8        29.63F
SILVER BAY     DRIZZLE   55  52  88 NE7       29.65F
GRAND MARAIS     N/A     52  45  77 NE8       29.72R
G MARAIS ARPRT CLOUDY    61  46  59 SE7       29.74R
$$
MNZ029>031-032-039>041-046>048-054>057-064-281800-
   West Central Minnesota

CITY           SKY/WX    TMP DP  RH WIND       PRES   REMARKS
FERGUS FALLS   CLOUDY    68  64  88 CALM      29.45R
WHEATON        CLOUDY    70  63  78 W18G24    29.50R
MORRIS         PTSUNNY   70  61  73 W17G24    29.48R
ALEXANDRIA     CLOUDY    67  63  87 SW10      29.50R
ELBOW LAKE     CLOUDY    68  64  88 SW7       29.47R
WADENA         CLOUDY    64  63  94 S6        29.50S
GLENWOOD       CLOUDY    68  64  88 SW15      29.50R
APPLETON       CLOUDY    73  63  68 W16G25    29.50R
BENSON         CLOUDY    72  63  73 W15G21    29.51R
ORTONVILLE     CLOUDY    72  61  68 W17       29.51R
MADISON        CLOUDY    75  64  69 W15G23    29.52R
WILLMAR        FAIR      72  66  83 SW14      29.52F
$$
MNZ033>034-036-042>043-049>051-058-059-281800-
   Central Minnesota

CITY           SKY/WX    TMP DP  RH WIND       PRES   REMARKS
ST CLOUD       LGT RAIN  67  67 100 S9        29.53S
SAUK CENTRE    CLOUDY    67  64  89 S12G20    29.49F
PAYNESVILLE    DRIZZLE   67  67 100 SW10G20   29.51F
AITKIN         DRIZZLE   61  57  88 SE7       29.54F
PINE RIVER     DRIZZLE   61  61 100 E9        29.57F
BRAINERD       CLOUDY    63  61  93 VRB5      29.53F
STAPLES        LGT RAIN  63  63 100 S3        29.50F
LONG PRAIRIE   CLOUDY    64  63  94 S9        29.50R
LITTLE FALLS   LGT RAIN  64  63  94 SE6       29.51F
LITCHFIELD     DRIZZLE   70  66  88 SW7       29.53F
BUFFALO        LGT RAIN  69  64  85 S8        29.56R
MAPLE LAKE     LGT RAIN  70  68  93 S6        29.55S
HUTCHINSON     CLOUDY    71  66  86 S6        29.55S
$$
MNZ037-044-045-052-053-281800-
   East Central Minnesota

CITY           SKY/WX    TMP DP  RH WIND       PRES   REMARKS
PRINCETON      LGT RAIN  68  66  94 S8        29.54S
MORA           CLOUDY    64  64 100 S7        29.56F
CAMBRIDGE      DRIZZLE   68  63  83 S10       29.53F
RUSH CITY      RAIN      66  63  88 S7        29.55F
MOOSE LAKE     LGT RAIN  59  57  94 E3        29.57F
HINCKLEY       DRIZZLE   63  63 100 SE5       29.57F
CLOQUET        LGT RAIN  55  54  94 E8        29.60F
MCGREGOR       CLOUDY    59  57  94 SE6       29.57F
$$
MNZ071>073-080-081-089-090-097-098-281800-
   Southwest Minnesota

CITY           SKY/WX    TMP DP  RH WIND       PRES   REMARKS
MONTEVIDEO     CLOUDY    73  66  78 W14       29.50F
GRANITE FALLS  CLOUDY    77  66  70 SW20      29.54S
CANBY          PTSUNNY   76  64  65 W14G21    29.56R
MARSHALL         N/A     79  66  64 W22G29    29.53S
REDWOOD FALLS  PTSUNNY   77  64  64 SW18G25   29.52F
OLIVIA         CLOUDY    72  64  78 SW12      29.52F
PIPESTONE      MOSUNNY   75  64  69 W16G23    29.60R
WINDOM         CLOUDY    79  64  61 SW16      29.58F
WORTHINGTON    MOSUNNY   76  65  68 SW20      29.61S
JACKSON        CLOUDY    75  64  69 SW18G24   29.62S
TRACY          MOSUNNY   74  66  76 SW20      29.56R
SLAYTON        CLOUDY    74  64  71 SW18      29.59F
$$
MNZ065>067-074>077-082>085-091>093-281800-
   South Central Minnesota

CITY           SKY/WX    TMP DP  RH WIND       PRES   REMARKS
MANKATO        CLOUDY    77  68  73 SW18G25   29.57F
NEW ULM        MOSUNNY   77  64  65 SW18      29.54F
ST JAMES       SUNNY     79  64  61 SW18      29.57F
FAIRMONT       CLOUDY    76  67  73 SW23G29   29.60F
GLENCOE        CLOUDY    71  69  93 S7        29.54F
FARIBAULT      CLOUDY    72  66  83 S14G22    29.60F
OWATONNA       CLOUDY    70  64  83 S16       29.62F
WASECA         CLOUDY    73  64  73 S14G20    29.62F
ALBERT LEA     CLOUDY    72  66  83 S5        29.64F
$$
MNZ078>079-086>088-094>096-281800-
   Southeast Minnesota

CITY           SKY/WX    TMP DP  RH WIND       PRES   REMARKS
ROCHESTER      CLOUDY    67  65  93 S14       29.67F
RED WING       CLOUDY    70  64  83 S12G18    29.61F
STANTON        CLOUDY    72  65  77 S14G23    29.59F
DODGE CENTER   CLOUDY    70  63  78 S18G26    29.66R
WINONA         CLOUDY    70  66  88 S7        29.69S
AUSTIN         CLOUDY    70  64  83 S14G20    29.66F
PRESTON        CLOUDY    67  63  86 S16G26    29.69F
$$
ABBREVIATIONS USED IN REMARKS
   TC - TEMPERATURES IN CELSIUS
  WCI - WIND CHILL INDEX
   HX - HEAT INDEX
  VSB - VISIBILITY
$$



USA.gov is the U.S. government's official web portal to all federal, state and local government web resources and services.